Provo, UT

11:39 AM MST on November 15, 2019 (GMT -0700)
Provo Municipal

Weather History for KPVU - September, 2019

Change the Weather History Date:

Saturday, September 7, 2019

  Actual Average Record
Temperature  
Mean Temperature 72 °F -  
Max Temperature 86 °F 78 °F 91 °F (2017)
Min Temperature 57 °F 51 °F 41 °F (2001)
Cooling Degree Days 6    
Growing Degree Days 22 (Base 50)    
Moisture  
Dew Point 54 °F    
Average Humidity 54    
Maximum Humidity 87    
Minimum Humidity 29    
Precipitation  
Precipitation 0.00 in - - ()
Sea Level Pressure  
Sea Level Pressure 29.96 in    
Wind  
Wind Speed 5 mph (WNW)    
Max Wind Speed 10 mph    
Max Gust Speed -    
Visibility 10 miles    
Events      
Averages and records for this station are not official NWS values.
T = Trace of Precipitation, MM = Missing Value Source: NWS Daily Summary

Daily Weather History Graph

Daily Weather History Graph

Search for Another Location

Airport or City:

Astronomy

Sep. 07, 2019 Rise Set
Actual Time 7:00 AM MDT 7:49 PM MDT
Civil Twilight 6:32 AM MDT 8:16 PM MDT
Nautical Twilight 5:59 AM MDT 8:49 PM MDT
Astronomical Twilight 5:25 AM MDT 9:22 PM MDT
Moon 4:08 PM MDT (9/7) 12:54 AM MDT (9/7)
Length of Visible Light 13h 44m
Length of Day
12h 49m
Waxing Gibbous, 66% of the Moon is Illuminated
Sep 7
Waxing Gibbous
Sep 13
Full
Sep 21
Last Quarter
Sep 28
New
Oct 5
First Quarter

Hourly Weather History & Observations

Time (MDT) Temp. Heat Index Dew Point Humidity Pressure Visibility Wind Dir Wind Speed Gust Speed Precip Events Conditions
12:56 AM 70.0 °F - 57.9 °F 65% 30.03 in 10.0 mi WNW 4.6 mph - N/A   Clear
1:56 AM 64.9 °F - 57.0 °F 75% 30.05 in 10.0 mi Variable 3.5 mph - N/A   Clear
2:56 AM 64.0 °F - 57.0 °F 78% 30.04 in 10.0 mi South 8.1 mph - N/A   Clear
3:56 AM 63.0 °F - 55.0 °F 75% 30.04 in 10.0 mi Calm Calm - N/A   Clear
4:56 AM 61.0 °F - 55.0 °F 81% 30.05 in 10.0 mi SSE 5.8 mph - N/A   Clear
5:56 AM 61.0 °F - 55.0 °F 81% 30.05 in 10.0 mi Calm Calm - N/A   Clear
6:56 AM 57.9 °F - 54.0 °F 87% 30.06 in 10.0 mi ESE 3.5 mph - N/A   Clear
7:56 AM 62.1 °F - 55.0 °F 78% 30.08 in 10.0 mi SSE 4.6 mph - N/A   Partly Cloudy
8:56 AM 66.0 °F - 53.1 °F 63% 30.06 in 10.0 mi Calm Calm - N/A   Partly Cloudy
9:56 AM 72.0 °F - 52.0 °F 49% 30.05 in 10.0 mi SSW 5.8 mph - N/A   Partly Cloudy
10:56 AM 73.9 °F - 53.1 °F 48% 30.04 in 10.0 mi NW 3.5 mph - N/A   Partly Cloudy
11:56 AM 75.9 °F - 55.0 °F 48% 30.02 in 10.0 mi West 5.8 mph - N/A   Scattered Clouds
12:56 PM 79.0 °F - 53.1 °F 40% 29.99 in 10.0 mi West 5.8 mph - N/A   Scattered Clouds
1:56 PM 80.1 °F 80.0 °F 54.0 °F 40% 29.97 in 10.0 mi North - - N/A   Scattered Clouds
2:56 PM 84.9 °F - 50.0 °F 30% 29.94 in 10.0 mi Calm Calm - N/A   Scattered Clouds
3:56 PM 86.0 °F - 50.0 °F 29% 29.91 in 10.0 mi NNW 8.1 mph - N/A   Mostly Cloudy
3:58 PM 86.0 °F - 50.0 °F 29% 29.91 in 10.0 mi NW 5.8 mph - N/A   Mostly Cloudy
4:11 PM 84.2 °F - 48.2 °F 29% 30.06 in 10.0 mi NW 9.2 mph - N/A   Mostly Cloudy
4:56 PM 84.9 °F 83.2 °F 53.1 °F 33% 29.89 in 10.0 mi WNW 8.1 mph - N/A   Mostly Cloudy
5:56 PM 84.0 °F 82.9 °F 55.0 °F 37% 29.86 in 10.0 mi NW 9.2 mph - N/A   Mostly Cloudy
6:56 PM 80.1 °F 80.4 °F 57.0 °F 45% 29.86 in 10.0 mi NW 10.4 mph - N/A   Mostly Cloudy
7:56 PM 77.0 °F - 57.0 °F 50% 29.84 in 10.0 mi NNW 8.1 mph - N/A   Mostly Cloudy
8:56 PM 75.9 °F - 54.0 °F 46% 29.83 in 10.0 mi NW 10.4 mph - N/A   Mostly Cloudy
9:56 PM 70.0 °F - 55.0 °F 59% 29.83 in 10.0 mi ESE 3.5 mph - N/A   Clear
10:56 PM 68.0 °F - 54.0 °F 61% 29.80 in 10.0 mi Calm Calm - N/A   Clear
11:56 PM 66.9 °F - 51.1 °F 57% 29.77 in 10.0 mi Calm Calm - N/A   Clear